Date String (YYYY-MM-DD hh:mm:ss) UTC,Instrument flags,absolute air pressure of the measurement (hPa),sample flow rate (lpm),inlet stack bypass flow (lpm),air temperature of the measurement (°C),ambient temperature measured by the external sensor (°C),aerosol sample conditioner tube jacket temperature (°C),OPC LED temperature (°C),internal box temperature (°C),relative humidity of the measurement (%),span deviation,mass concentration of particles derived from Lorenz-Mie calculation of OPC scattering (μg/m³),mass concentration of particles derived from Lorenz-Mie calculation of OPC scattering (μg/m³),mass concentration of particles derived from Lorenz-Mie calculation of OPC scattering (μg/m³)
DateTimeUTC,F1_M11,P_M11,Q1_M11,Q2_M11,T1_M11,T2_M11,T3_M11,T4_M11,T5_M11,U1_M11,ZSPAN_M11,X0_M11,X2_M11,X1_M11
2024-05-28 20:00:00,SystemResetWarning,0833.8,5.00,000.00,029.4,028.1,000.0,037.8,031.0,019.2,0000.0,0020.70,0004.56,0003.12
2024-05-28 20:01:00,SystemResetWarning,0833.8,4.99,000.00,029.4,028.3,000.0,037.8,031.1,018.7,0000.0,0019.99,0004.63,0003.14
2024-05-28 20:02:00,SystemResetWarning,0833.7,5.00,000.00,029.5,028.6,000.0,037.8,031.2,019.2,0000.0,0019.52,0004.73,0003.19
2024-05-28 20:03:00,SystemResetWarning,0833.8,5.00,000.00,029.6,028.8,000.0,037.8,031.3,019.0,0000.0,0021.28,0004.83,0003.25
2024-05-28 20:04:00,SystemResetWarning,0833.8,5.00,000.00,029.6,028.9,000.0,037.8,031.4,018.7,0000.0,0021.48,0004.96,0003.31
2024-05-28 20:05:00,SystemResetWarning,0833.8,5.00,000.00,029.7,029.1,000.0,037.8,031.4,018.6,0000.0,0021.50,0005.00,0003.35
2024-05-28 20:06:00,SystemResetWarning,0833.7,5.01,000.00,029.8,029.2,000.0,037.9,031.5,018.6,0000.0,0021.75,0005.08,0003.40
2024-05-28 20:07:00,SystemResetWarning,0833.8,5.00,000.00,029.8,029.3,000.0,037.9,031.6,018.6,0000.0,0021.82,0005.22,0003.45
2024-05-28 20:08:00,SystemResetWarning,0833.7,5.00,000.00,029.9,029.4,000.0,037.9,031.7,018.5,0000.0,0021.43,0005.28,0003.50
2024-05-28 20:09:00,SystemResetWarning,0833.7,5.00,000.00,029.9,029.2,000.0,038.0,031.5,018.7,0000.0,0021.12,0005.28,0003.53
2024-05-28 20:10:00,SystemResetWarning,0833.6,4.99,000.00,029.6,026.9,000.0,038.1,030.4,018.8,0000.0,0022.07,0005.31,0003.55
2024-05-28 20:11:00,SystemResetWarning,0833.6,5.02,000.00,029.2,025.4,000.0,038.0,029.7,019.5,0000.0,0022.94,0005.32,0003.56
2024-05-28 20:12:00,SystemResetWarning,0833.5,5.00,000.00,029.0,025.9,000.0,038.0,029.8,019.9,0000.0,0022.95,0005.30,0003.55
2024-05-28 20:13:00,SystemResetWarning,0833.6,4.99,000.00,029.0,026.4,000.0,037.8,030.0,019.8,0000.0,0024.10,0005.27,0003.54
2024-05-28 20:14:00,SystemResetWarning,0833.6,5.00,000.00,029.0,026.9,000.0,037.7,030.3,019.6,0000.0,0024.52,0005.28,0003.54
2024-05-28 20:15:00,SystemResetWarning,0833.6,5.01,000.00,029.0,027.3,000.0,037.6,030.5,020.0,0000.0,0025.17,0005.34,0003.57
2024-05-28 20:16:00,SystemResetWarning,0833.6,5.01,000.00,029.1,027.7,000.0,037.6,030.7,019.7,0000.0,0025.58,0005.32,0003.59
2024-05-28 20:17:00,SystemResetWarning,0833.6,4.99,000.00,029.2,028.0,000.0,037.6,030.8,019.6,0000.0,0026.00,0005.40,0003.64
2024-05-28 20:18:00,SystemResetWarning,0833.6,4.99,000.00,029.2,028.2,000.0,037.6,030.9,019.4,0000.0,0027.57,0005.47,0003.68
2024-05-28 20:19:00,SystemResetWarning,0833.7,4.99,000.00,029.3,028.5,000.0,037.6,031.0,019.6,0000.0,0028.69,0005.52,0003.73
2024-05-28 20:20:00,SystemResetWarning,0833.6,5.00,000.00,029.3,028.6,000.0,037.6,031.1,019.2,0000.0,0028.85,0005.68,0003.77
2024-05-28 20:21:00,SystemResetWarning,0833.6,5.00,000.00,029.4,028.8,000.0,037.6,031.2,019.8,0000.0,0029.60,0005.76,0003.83
2024-05-28 20:22:00,SystemResetWarning,0833.5,5.00,000.00,029.5,029.0,000.0,037.6,031.3,019.6,0000.0,0030.48,0005.83,0003.87
2024-05-28 20:23:00,SystemResetWarning,0833.6,5.01,000.00,029.6,029.1,000.0,037.7,031.4,018.9,0000.0,0031.47,0005.89,0003.91
2024-05-28 20:24:00,SystemResetWarning,0833.5,5.00,000.00,029.6,029.2,000.0,037.7,031.4,018.6,0000.0,0032.76,0005.93,0003.93
2024-05-28 20:25:00,SystemResetWarning,0833.5,5.00,000.00,029.7,029.3,000.0,037.8,031.5,018.6,0000.0,0031.23,0005.95,0003.96
2024-05-28 20:26:00,SystemResetWarning,0833.5,5.00,000.00,029.8,029.4,000.0,037.8,031.6,018.8,0000.0,0031.42,0005.90,0003.96
2024-05-28 20:27:00,SystemResetWarning,0833.5,5.00,000.00,029.8,029.3,000.0,037.9,031.5,018.8,0000.0,0032.89,0005.93,0003.96
2024-05-28 20:28:00,SystemResetWarning,0833.5,4.99,000.00,029.6,027.5,000.0,037.9,030.7,019.0,0000.0,0033.14,0005.90,0003.94
2024-05-28 20:29:00,SystemResetWarning,0833.4,5.02,000.00,029.3,026.7,000.0,038.0,030.3,018.8,0000.0,0032.35,0005.87,0003.93
2024-05-28 20:30:00,SystemResetWarning,0833.4,5.00,000.00,029.2,027.0,000.0,037.9,030.4,018.9,0000.0,0032.55,0005.86,0003.94
2024-05-28 20:31:00,SystemResetWarning,0833.5,4.99,000.00,029.2,027.4,000.0,037.8,030.6,019.4,0000.0,0033.58,0005.79,0003.93
2024-05-28 20:32:00,SystemResetWarning,0833.4,5.00,000.00,029.3,027.7,000.0,037.7,030.8,019.0,0000.0,0032.43,0005.74,0003.91
2024-05-28 20:33:00,SystemResetWarning,0833.4,5.01,000.00,029.3,028.1,000.0,037.7,030.9,018.8,0000.0,0032.45,0005.69,0003.89
2024-05-28 20:34:00,SystemResetWarning,0833.4,5.00,000.00,029.4,028.3,000.0,037.7,031.0,018.6,0000.0,0032.38,0005.70,0003.88
2024-05-28 20:35:00,SystemResetWarning,0833.3,4.99,000.00,029.5,028.6,000.0,037.7,031.2,018.4,0000.0,0032.43,0005.71,0003.87
2024-05-28 20:36:00,SystemResetWarning,0833.3,5.00,000.00,029.5,028.8,000.0,037.7,031.3,018.1,0000.0,0033.13,0005.69,0003.83
2024-05-28 20:37:00,SystemResetWarning,0833.3,5.00,000.00,029.6,029.0,000.0,037.8,031.3,017.9,0000.0,0031.36,0005.69,0003.80
2024-05-28 20:38:00,SystemResetWarning,0833.3,5.00,000.00,029.7,029.1,000.0,037.8,031.4,018.9,0000.0,0030.48,0005.62,0003.76
2024-05-28 20:39:00,SystemResetWarning,0833.3,5.00,000.00,029.7,029.2,000.0,037.8,031.5,018.9,0000.0,0028.76,0005.54,0003.73
2024-05-28 20:40:00,SystemResetWarning,0833.3,5.00,000.00,029.8,029.4,000.0,037.9,031.6,018.3,0000.0,0029.65,0005.45,0003.69
2024-05-28 20:41:00,SystemResetWarning,0833.3,5.00,000.00,029.9,029.1,000.0,037.9,031.5,018.3,0000.0,0029.58,0005.39,0003.65
2024-05-28 20:42:00,SystemResetWarning,0833.2,4.98,000.00,029.6,027.2,000.0,038.0,030.6,018.4,0000.0,0029.94,0005.35,0003.61
2024-05-28 20:43:00,SystemResetWarning,0833.2,5.02,000.00,029.3,026.7,000.0,038.0,030.3,019.2,0000.0,0030.48,0005.36,0003.58
2024-05-28 20:44:00,SystemResetWarning,0833.2,5.00,000.00,029.3,027.1,000.0,037.9,030.5,019.2,0000.0,0030.77,0005.41,0003.56
2024-05-28 20:45:00,SystemResetWarning,0833.2,5.00,000.00,029.3,027.5,000.0,037.8,030.7,018.6,0000.0,0028.67,0005.35,0003.53
2024-05-28 20:46:00,SystemResetWarning,0833.2,5.01,000.00,029.4,027.8,000.0,037.8,030.8,018.6,0000.0,0027.83,0005.26,0003.48
2024-05-28 20:47:00,SystemResetWarning,0833.2,5.00,000.00,029.4,028.1,000.0,037.8,031.0,019.4,0000.0,0027.47,0005.21,0003.44
2024-05-28 20:48:00,SystemResetWarning,0833.2,4.99,000.00,029.5,028.4,000.0,037.8,031.1,018.5,0000.0,0027.99,0005.11,0003.40
2024-05-28 20:49:00,SystemResetWarning,0833.2,4.99,000.00,029.5,028.7,000.0,037.8,031.2,017.9,0000.0,0028.46,0005.09,0003.38
2024-05-28 20:50:00,SystemResetWarning,0833.2,5.00,000.00,029.6,028.9,000.0,037.8,031.3,018.2,0000.0,0029.20,0005.09,0003.36
2024-05-28 20:51:00,SystemResetWarning,0833.2,5.00,000.00,029.7,029.0,000.0,037.8,031.4,017.2,0000.0,0029.70,0005.09,0003.32
2024-05-28 20:52:00,SystemResetWarning,0833.2,5.00,000.00,029.7,029.2,000.0,037.8,031.5,017.8,0000.0,0028.83,0005.02,0003.28
2024-05-28 20:53:00,SystemResetWarning,0833.2,5.00,000.00,029.8,029.3,000.0,037.9,031.6,017.3,0000.0,0027.83,0004.98,0003.25
2024-05-28 20:54:00,SystemResetWarning,0833.1,5.00,000.00,029.9,029.4,000.0,037.9,031.6,017.1,0000.0,0027.33,0004.94,0003.23
2024-05-28 20:55:00,SystemResetWarning,0833.1,4.98,000.00,029.7,027.8,000.0,038.0,030.8,017.3,0000.0,0027.16,0004.87,0003.20
2024-05-28 20:56:00,SystemResetWarning,0832.9,5.01,000.00,029.3,025.6,000.0,038.0,029.7,018.0,0000.0,0028.30,0004.74,0003.18
2024-05-28 20:57:00,SystemResetWarning,0833.0,5.02,000.00,029.0,025.7,000.0,037.9,029.7,018.5,0000.0,0028.98,0004.69,0003.17
2024-05-28 20:58:00,SystemResetWarning,0833.0,4.99,000.00,028.9,026.2,000.0,037.8,029.9,018.6,0000.0,0027.41,0004.65,0003.17
2024-05-28 20:59:00,SystemResetWarning,0833.0,5.00,000.00,028.9,026.7,000.0,037.7,030.2,018.7,0000.0,0028.46,0004.65,0003.17
